Location: Pcim
(49.7500°N, 19.9670°E)
Time: 19:37:43
(UTC+02:00)

MOZHAYETS 4 - Pass Details

Date: 01 May 2024
Orbit: 652 x 670 km, 98.3° (Epoch: 20 May)

Event Time Altitude Azimuth Distance (km) Brightness Sun altitude
Rises 02:45:29 0° 131° (SE) 3,011 11.0 -19.2°
Reaches altitude 10° 02:47:58 10° 120° (ESE) 2,101 10.3 -19.0°
Maximum altitude 02:51:47 27° 63° (ENE) 1,288 9.8 -18.6°
Drops below altitude 10° 02:55:39 10° 6° (N) 2,109 11.2 -18.3°
Sets 02:58:08 0° 355° (N) 3,024 11.9 -18.0°
